,,Stat5,,Stat1,,Stat2,,Stat3,,Stat4,,Wind1,,Wind1,
time,status,PA1M_AVG,status,PR1M_SUM,status,RH1M_AVG,status,SR1M_AVG,status,TA1M_AVG,status,W1dAve1m,status,W1sAve1m,
2003-08-10, 00:00:00,VALID,917.301,VALID,0,VALID,100,VALID,-0.0849042,VALID,20.645,VALID,360,VALID,0.054497,
2003-08-10, 00:01:00,VALID,917.293,VALID,0,VALID,100,VALID,-0.0509425,VALID,20.6453,VALID,360,VALID,0,
2003-08-10, 00:02:00,VALID,917.261,VALID,0,VALID,100,VALID,-0.0849042,VALID,20.6132,VALID,1,VALID,0.163462,
2003-08-10, 00:03:00,VALID,917.25,VALID,0,VALID,100,VALID,-0.0849042,VALID,20.5648,VALID,5,VALID,0.339286,
2003-08-10, 00:04:00,VALID,917.231,VALID,0,VALID,100,VALID,-0.0509425,VALID,20.5128,VALID,16,VALID,0.532118,
2003-08-10, 00:05:00,VALID,917.218,VALID,0,VALID,100,VALID,-0.0679233,VALID,20.4517,VALID,16,VALID,0.872613,
2003-08-10, 00:06:00,VALID,917.201,VALID,0,VALID,99.9977,VALID,0,VALID,20.4125,VALID,21,VALID,0.851563,
2003-08-10, 00:07:00,VALID,917.196,VALID,0,VALID,99.9977,VALID,-0.0849042,VALID,20.3807,VALID,16,VALID,0.391774,
2003-08-10, 00:08:00,VALID,917.189,VALID,0,VALID,99.998,VALID,-0.101885,VALID,20.3481,VALID,341,VALID,0.254825,
2003-08-10, 00:09:00,VALID,917.189,VALID,0,VALID,100,VALID,-0.0509425,VALID,20.4035,VALID,350,VALID,0.624805,
2003-08-10, 00:10:00,VALID,917.164,VALID,0,VALID,100,VALID,-0.101885,VALID,20.4261,VALID,16,VALID,0.496429,
2003-08-10, 00:11:00,VALID,917.168,VALID,0,VALID,100,VALID,-0.101885,VALID,20.4323,VALID,20,VALID,0.513327,
2003-08-10, 00:12:00,VALID,917.166,VALID,0,VALID,100,VALID,-0.0849042,VALID,20.4517,VALID,27,VALID,0.508429,
2003-08-10, 00:13:00,VALID,917.166,VALID,0,VALID,100,VALID,-0.101885,VALID,20.4614,VALID,28,VALID,0.442356,
2003-08-10, 00:14:00,VALID,917.159,VALID,0,VALID,100,VALID,-0.0849042,VALID,20.4776,VALID,31,VALID,0.430088,
2003-08-10, 00:15:00,VALID,917.149,VALID,0,VALID,100,VALID,-0.101885,VALID,20.4738,VALID,31,VALID,0.31317,
2003-08-10, 00:16:00,VALID,917.137,VALID,0,VALID,100,VALID,-0.0679233,VALID,20.4878,VALID,31,VALID,0.112723,
2003-08-10, 00:17:00,VALID,917.111,VALID,0,VALID,100,VALID,-0.118866,VALID,20.4778,VALID,31,VALID,0.104018,
2003-08-10, 00:18:00,VALID,917.082,VALID,0,VALID,100,VALID,-0.101885,VALID,20.4652,VALID,42,VALID,0.170608,
2003-08-10, 00:19:00,VALID,917.047,VALID,0,VALID,100,VALID,-0.0849042,VALID,20.445,VALID,151,VALID,0.407652,
2003-08-10, 00:20:00,VALID,917.01,VALID,0,VALID,100,VALID,-0.101885,VALID,20.4224,VALID,143,VALID,0.570095,
2003-08-10, 00:21:00,VALID,916.987,VALID,0,VALID,100,VALID,-0.101885,VALID,20.4132,VALID,127,VALID,0.609164,
2003-08-10, 00:22:00,VALID,916.949,VALID,0,VALID,100,VALID,-0.101885,VALID,20.3906,VALID,102,VALID,0.601563,
2003-08-10, 00:23:00,VALID,916.928,VALID,0,VALID,100,VALID,-0.101885,VALID,20.3944,VALID,91,VALID,0.786318,
2003-08-10, 00:24:00,VALID,916.925,VALID,0,VALID,100,VALID,-0.0679233,VALID,20.3906,VALID,69,VALID,0.78145,
2003-08-10, 00:25:00,VALID,916.925,VALID,0,VALID,100,VALID,0,VALID,20.3662,VALID,37,VALID,0.73522,
2003-08-10, 00:26:00,VALID,916.95,VALID,0,VALID,100,VALID,0,VALID,20.3508,VALID,34,VALID,0.739865,
2003-08-10, 00:27:00,VALID,916.973,VALID,0,VALID,100,VALID,0.0339617,VALID,20.3178,VALID,25,VALID,0.85612,
2003-08-10, 00:28:00,VALID,916.987,VALID,0,VALID,100,VALID,0.0169808,VALID,20.2785,VALID,23,VALID,0.898884,
2003-08-10, 00:29:00,VALID,917.002,VALID,0,VALID,100,VALID,0.0169808,VALID,20.2594,VALID,20,VALID,1.19207,
2003-08-10, 00:30:00,VALID,917.018,VALID,0,VALID,100,VALID,0.0339617,VALID,20.2405,VALID,9,VALID,1.40848,
2003-08-10, 00:31:00,VALID,917.015,VALID,0,VALID,100,VALID,0.0169808,VALID,20.2629,VALID,15,VALID,1.33355,
2003-08-10, 00:32:00,VALID,917.008,VALID,0,VALID,100,VALID,0.0169808,VALID,20.247,VALID,12,VALID,1.20929,
2003-08-10, 00:33:00,VALID,917.002,VALID,0,VALID,100,VALID,0.0169808,VALID,20.237,VALID,14,VALID,1.04487,
2003-08-10, 00:34:00,VALID,917.016,VALID,0,VALID,100,VALID,0.0339617,VALID,20.2015,VALID,18,VALID,0.733758,
2003-08-10, 00:35:00,VALID,917.024,VALID,0,VALID,100,VALID,0,VALID,20.2052,VALID,35,VALID,0.635653,
2003-08-10, 00:36:00,VALID,917.018,VALID,0,VALID,100,VALID,0.0169808,VALID,20.2047,VALID,35,VALID,0.399071,
2003-08-10, 00:37:00,VALID,917.026,VALID,0,VALID,100,VALID,0,VALID,20.205,VALID,21,VALID,0.53824,
2003-08-10, 00:38:00,VALID,917.015,VALID,0,VALID,100,VALID,0,VALID,20.2182,VALID,16,VALID,0.615921,
2003-08-10, 00:39:00,VALID,917.012,VALID,0,VALID,100,VALID,0.0169808,VALID,20.2211,VALID,14,VALID,0.837941,
2003-08-10, 00:40:00,VALID,916.994,VALID,0,VALID,100,VALID,-0.101885,VALID,20.2222,VALID,14,VALID,0.697321,
2003-08-10, 00:41:00,VALID,916.982,VALID,0,VALID,100,VALID,-0.0849042,VALID,20.2189,VALID,15,VALID,0.623392,
2003-08-10, 00:42:00,VALID,916.967,VALID,0,VALID,100,VALID,-0.0849042,VALID,20.2455,VALID,32,VALID,0.664907,
2003-08-10, 00:43:00,VALID,916.946,VALID,0,VALID,100,VALID,-0.101885,VALID,20.2361,VALID,36,VALID,0.672297,
2003-08-10, 00:44:00,VALID,916.905,VALID,0,VALID,100,VALID,-0.0849042,VALID,20.2423,VALID,39,VALID,0.597356,
2003-08-10, 00:45:00,VALID,916.889,VALID,0,VALID,100,VALID,-0.101885,VALID,20.2264,VALID,36,VALID,0.691518,
2003-08-10, 00:46:00,VALID,916.855,VALID,0,VALID,100,VALID,-0.101885,VALID,20.2326,VALID,40,VALID,0.759598,
2003-08-10, 00:47:00,VALID,916.844,VALID,0,VALID,100,VALID,-0.101885,VALID,20.2423,VALID,37,VALID,0.575223,
2003-08-10, 00:48:00,VALID,916.831,VALID,0,VALID,100,VALID,-0.101885,VALID,20.2463,VALID,54,VALID,0.410473,
2003-08-10, 00:49:00,VALID,916.825,VALID,0,VALID,100,VALID,-0.101885,VALID,20.216,VALID,54,VALID,0.0709135,
2003-08-10, 00:50:00,VALID,916.829,VALID,0,VALID,100,VALID,-0.101885,VALID,20.2103,VALID,55,VALID,0.327257,
2003-08-10, 00:51:00,VALID,916.832,VALID,0,VALID,100,VALID,-0.101885,VALID,20.1906,VALID,56,VALID,0.346284,
2003-08-10, 00:52:00,VALID,916.833,VALID,0,VALID,100,VALID,-0.0509425,VALID,20.1772,VALID,56,VALID,0.224451,
2003-08-10, 00:53:00,VALID,916.837,VALID,0,VALID,100,VALID,-0.0679233,VALID,20.1804,VALID,56,VALID,0.0219595,
2003-08-10, 00:54:00,VALID,916.841,VALID,0,VALID,100,VALID,-0.101885,VALID,20.1874,VALID,56,VALID,0,
2003-08-10, 00:55:00,VALID,916.835,VALID,0,VALID,100,VALID,-0.0849042,VALID,20.1904,VALID,56,VALID,0.145693,
2003-08-10, 00:56:00,VALID,916.835,VALID,0,VALID,100,VALID,-0.0509425,VALID,20.1742,VALID,56,VALID,0.288429,
2003-08-10, 00:57:00,VALID,916.832,VALID,0,VALID,100,VALID,-0.0509425,VALID,20.1678,VALID,56,VALID,0.20638,
2003-08-10, 00:58:00,VALID,916.812,VALID,0,VALID,100,VALID,-0.0679233,VALID,20.1774,VALID,56,VALID,0.344196,
2003-08-10, 00:59:00,VALID,916.81,VALID,0,VALID,100,VALID,-0.0849042,VALID,20.1616,VALID,53,VALID,0.445122,
2003-08-10, 01:00:00,VALID,916.791,VALID,0,VALID,100,VALID,-0.0849042,VALID,20.1486,VALID,44,VALID,0.547321,
2003-08-10, 01:01:00,VALID,916.774,VALID,0,VALID,100,VALID,-0.0849042,VALID,20.1099,VALID,44,VALID,0.444227,
2003-08-10, 01:02:00,VALID,916.753,VALID,0,VALID,100,VALID,-0.0849042,VALID,20.1032,VALID,46,VALID,0.636102,
2003-08-10, 01:03:00,VALID,916.75,VALID,0,VALID,100,VALID,-0.0679233,VALID,20.0803,VALID,47,VALID,0.479018,
2003-08-10, 01:04:00,VALID,916.753,VALID,0,VALID,100,VALID,-0.0849042,VALID,20.0709,VALID,57,VALID,0.577303,
2003-08-10, 01:05:00,VALID,916.753,VALID,0,VALID,100,VALID,-0.0849042,VALID,20.0711,VALID,57,VALID,0.535748,
2003-08-10, 01:06:00,VALID,916.752,VALID,0,VALID,100,VALID,-0.0849042,VALID,20.0711,VALID,58,VALID,0.347973,
2003-08-10, 01:07:00,VALID,916.748,VALID,0,VALID,100,VALID,-0.101885,VALID,20.0679,VALID,47,VALID,0.240337,
2003-08-10, 01:08:00,VALID,916.763,VALID,0,VALID,100,VALID,-0.101885,VALID,20.0711,VALID,17,VALID,0.344172,
2003-08-10, 01:09:00,VALID,916.758,VALID,0,VALID,100,VALID,-0.0679233,VALID,20.0453,VALID,17,VALID,0.318109,
2003-08-10, 01:10:00,VALID,916.759,VALID,0,VALID,100,VALID,-0.101885,VALID,20.045,VALID,360,VALID,0.450893,
2003-08-10, 01:11:00,VALID,916.759,VALID,0,VALID,100,VALID,-0.0509425,VALID,20.0485,VALID,312,VALID,0.475873,
2003-08-10, 01:12:00,VALID,916.768,VALID,0,VALID,100,VALID,-0.0509425,VALID,20.0937,VALID,266,VALID,0.353041,
2003-08-10, 01:13:00,VALID,916.769,VALID,0,VALID,100,VALID,-0.0679233,VALID,20.1225,VALID,266,VALID,0.300042,
2003-08-10, 01:14:00,VALID,916.769,VALID,0,VALID,100,VALID,-0.0849042,VALID,20.1588,VALID,266,VALID,0.209535,
2003-08-10, 01:15:00,VALID,916.763,VALID,0,VALID,100,VALID,-0.0339617,VALID,20.1678,VALID,266,VALID,0,
2003-08-10, 01:16:00,VALID,916.751,VALID,0,VALID,100,VALID,-0.0509425,VALID,20.2033,VALID,266,VALID,0,
2003-08-10, 01:17:00,VALID,916.742,VALID,0,VALID,100,VALID,-0.0679233,VALID,20.2296,VALID,266,VALID,0,
2003-08-10, 01:18:00,VALID,916.732,VALID,0,VALID,100,VALID,-0.101885,VALID,20.2296,VALID,266,VALID,0,
2003-08-10, 01:19:00,VALID,916.713,VALID,0,VALID,100,VALID,0,VALID,20.1968,VALID,266,VALID,0,
2003-08-10, 01:20:00,VALID,916.707,VALID,0,VALID,100,VALID,-0.0679233,VALID,20.1995,VALID,266,VALID,0,
2003-08-10, 01:21:00,VALID,916.691,VALID,0,VALID,100,VALID,-0.0509425,VALID,20.2229,VALID,266,VALID,0,
2003-08-10, 01:22:00,VALID,916.674,VALID,0,VALID,100,VALID,-0.0339617,VALID,20.2068,VALID,266,VALID,0.088049,
2003-08-10, 01:23:00,VALID,916.66,VALID,0,VALID,100,VALID,-0.0849042,VALID,20.2137,VALID,266,VALID,0.0491976,
2003-08-10, 01:24:00,VALID,916.639,VALID,0,VALID,100,VALID,-0.0679233,VALID,20.2068,VALID,261,VALID,0.0847356,
2003-08-10, 01:25:00,VALID,916.621,VALID,0,VALID,100,VALID,0.0339617,VALID,20.1953,VALID,200,VALID,0.251056,
2003-08-10, 01:26:00,VALID,916.613,VALID,0,VALID,100,VALID,0.0509425,VALID,20.1953,VALID,195,VALID,0.123311,
2003-08-10, 01:27:00,VALID,916.609,VALID,0,VALID,100,VALID,0.0509425,VALID,20.1729,VALID,162,VALID,0.285373,
2003-08-10, 01:28:00,VALID,916.589,VALID,0,VALID,100,VALID,0.0339617,VALID,20.1824,VALID,130,VALID,0.268973,
2003-08-10, 01:29:00,VALID,916.597,VALID,0,VALID,100,VALID,0.0679233,VALID,20.2147,VALID,59,VALID,0.242569,
2003-08-10, 01:30:00,VALID,916.591,VALID,0,VALID,100,VALID,0.0679233,VALID,20.2308,VALID,55,VALID,0.304911,
2003-08-10, 01:31:00,VALID,916.594,VALID,0,VALID,100,VALID,0.0509425,VALID,20.2636,VALID,46,VALID,0.388672,
2003-08-10, 01:32:00,VALID,916.574,VALID,0,VALID,100,VALID,0.0509425,VALID,20.2666,VALID,33,VALID,0.326275,
2003-08-10, 01:33:00,VALID,916.57,VALID,0,VALID,100,VALID,0.0679233,VALID,20.237,VALID,32,VALID,0.0875,
2003-08-10, 01:34:00,VALID,916.562,VALID,0,VALID,100,VALID,0.0169808,VALID,20.248,VALID,32,VALID,0.128289,
2003-08-10, 01:35:00,VALID,916.54,VALID,0,VALID,100,VALID,0.0679233,VALID,20.2505,VALID,28,VALID,0.330492,
2003-08-10, 01:36:00,VALID,916.53,VALID,0,VALID,100,VALID,0.0849042,VALID,20.2435,VALID,23,VALID,0.320313,
2003-08-10, 01:37:00,VALID,916.52,VALID,0,VALID,100,VALID,0.0339617,VALID,20.2241,VALID,20,VALID,0.230469,
2003-08-10, 01:38:00,VALID,916.509,VALID,0,VALID,100,VALID,0.0169808,VALID,20.2276,VALID,20,VALID,0.00358953,
2003-08-10, 01:39:00,VALID,916.504,VALID,0,VALID,100,VALID,0.0679233,VALID,20.2271,VALID,20,VALID,0,
2003-08-10, 01:40:00,VALID,916.512,VALID,0,VALID,100,VALID,0.0509425,VALID,20.199,VALID,20,VALID,0,
2003-08-10, 01:41:00,VALID,916.508,VALID,0,VALID,100,VALID,0.0679233,VALID,20.1757,VALID,20,VALID,0.0147059,
2003-08-10, 01:42:00,VALID,916.498,VALID,0,VALID,100,VALID,0.0679233,VALID,20.1824,VALID,20,VALID,0.00886824,
2003-08-10, 01:43:00,VALID,916.494,VALID,0,VALID,100,VALID,0.0679233,VALID,20.2015,VALID,20,VALID,0.145693,
2003-08-10, 01:44:00,VALID,916.478,VALID,0,VALID,100,VALID,0.0679233,VALID,20.1859,VALID,20,VALID,0.10637,
2003-08-10, 01:45:00,VALID,916.464,VALID,0,VALID,100,VALID,0.0169808,VALID,20.1826,VALID,20,VALID,0.125446,
2003-08-10, 01:46:00,VALID,916.445,VALID,0,VALID,100,VALID,0.0849042,VALID,20.208,VALID,20,VALID,0.0225446,
2003-08-10, 01:47:00,VALID,916.445,VALID,0,VALID,100,VALID,0.0679233,VALID,20.2502,VALID,20,VALID,0.106027,
2003-08-10, 01:48:00,VALID,916.439,VALID,0,VALID,100,VALID,0.0849042,VALID,20.279,VALID,20,VALID,0.0903716,
2003-08-10, 01:49:00,VALID,916.44,VALID,0,VALID,100,VALID,0.0679233,VALID,20.2693,VALID,25,VALID,0.221354,
2003-08-10, 01:50:00,VALID,916.455,VALID,0,VALID,100,VALID,0.0339617,VALID,20.2206,VALID,53,VALID,0.352431,
2003-08-10, 01:51:00,VALID,916.463,VALID,0,VALID,100,VALID,0.0849042,VALID,20.1593,VALID,72,VALID,0.537373,
2003-08-10, 01:52:00,VALID,916.445,VALID,0,VALID,100,VALID,0.0509425,VALID,20.1208,VALID,106,VALID,0.554899,
2003-08-10, 01:53:00,VALID,916.423,VALID,0,VALID,100,VALID,0.0849042,VALID,20.0979,VALID,111,VALID,0.614443,
2003-08-10, 01:54:00,VALID,916.374,VALID,0,VALID,100,VALID,0.0849042,VALID,20.0788,VALID,135,VALID,0.524038,
2003-08-10, 01:55:00,VALID,916.339,VALID,0,VALID,100,VALID,0.0679233,VALID,20.0691,VALID,135,VALID,0.524704,
2003-08-10, 01:56:00,VALID,916.305,VALID,0,VALID,100,VALID,0.101885,VALID,20.0594,VALID,135,VALID,0.532095,
2003-08-10, 01:57:00,VALID,916.263,VALID,0,VALID,100,VALID,0.0169808,VALID,20.0631,VALID,134,VALID,0.399957,
2003-08-10, 01:58:00,VALID,916.248,VALID,0,VALID,100,VALID,0.0679233,VALID,20.0728,VALID,134,VALID,0.146429,
2003-08-10, 01:59:00,VALID,916.239,VALID,0,VALID,100,VALID,0.0849042,VALID,20.089,VALID,134,VALID,0.0607851,
2003-08-10, 02:00:00,VALID,916.203,VALID,0,VALID,100,VALID,0.0679233,VALID,20.1113,VALID,134,VALID,0.000892857,
2003-08-10, 02:01:00,VALID,916.195,VALID,0,VALID,100,VALID,0.0679233,VALID,20.1113,VALID,134,VALID,0,
2003-08-10, 02:02:00,VALID,916.167,VALID,0,VALID,100,VALID,0.0509425,VALID,20.1014,VALID,134,VALID,0,
2003-08-10, 02:03:00,VALID,916.149,VALID,0,VALID,100,VALID,0.0339617,VALID,20.1404,VALID,134,VALID,0.0549107,
2003-08-10, 02:04:00,VALID,916.117,VALID,0,VALID,100,VALID,0.0509425,VALID,20.1372,VALID,116,VALID,0.362664,
2003-08-10, 02:05:00,VALID,916.09,VALID,0,VALID,100,VALID,0.0509425,VALID,20.1275,VALID,113,VALID,0.573864,
2003-08-10, 02:06:00,VALID,916.067,VALID,0,VALID,100,VALID,0.0509425,VALID,20.131,VALID,118,VALID,0.629434,
2003-08-10, 02:07:00,VALID,916.052,VALID,0,VALID,100,VALID,0.0169808,VALID,20.1434,VALID,134,VALID,0.212377,
2003-08-10, 02:08:00,VALID,916.043,VALID,0,VALID,100,VALID,0.0169808,VALID,20.1824,VALID,69,VALID,0.177365,
2003-08-10, 02:09:00,VALID,916.047,VALID,0,VALID,100,VALID,0.0339617,VALID,20.1985,VALID,88,VALID,0.554487,
2003-08-10, 02:10:00,VALID,916.042,VALID,0,VALID,100,VALID,-0.0169808,VALID,20.1809,VALID,114,VALID,0.767634,
2003-08-10, 02:11:00,VALID,916.048,VALID,0,VALID,100,VALID,-0.0849042,VALID,20.1807,VALID,124,VALID,0.792969,
2003-08-10, 02:12:00,VALID,916.065,VALID,0,VALID,100,VALID,-0.0509425,VALID,20.2167,VALID,136,VALID,0.527027,
2003-08-10, 02:13:00,VALID,916.07,VALID,0,VALID,100,VALID,-0.0509425,VALID,20.2331,VALID,139,VALID,0.861275,
2003-08-10, 02:14:00,VALID,916.078,VALID,0,VALID,100,VALID,-0.0169808,VALID,20.2488,VALID,126,VALID,0.923277,
2003-08-10, 02:15:00,VALID,916.076,VALID,0,VALID,100,VALID,-0.0679233,VALID,20.2684,VALID,136,VALID,0.71942,
2003-08-10, 02:16:00,VALID,916.071,VALID,0,VALID,100,VALID,0,VALID,20.2679,VALID,136,VALID,0.849554,
2003-08-10, 02:17:00,VALID,916.065,VALID,0,VALID,100,VALID,-0.0339617,VALID,20.2972,VALID,114,VALID,0.729911,
2003-08-10, 02:18:00,VALID,916.05,VALID,0,VALID,100,VALID,-0.0849042,VALID,20.2843,VALID,103,VALID,0.646326,
2003-08-10, 02:19:00,VALID,916.05,VALID,0,VALID,100,VALID,-0.0339617,VALID,20.2977,VALID,101,VALID,0.609976,
2003-08-10, 02:20:00,VALID,916.046,VALID,0,VALID,100,VALID,-0.0169808,VALID,20.2845,VALID,103,VALID,0.409722,
2003-08-10, 02:21:00,VALID,916.019,VALID,0,VALID,100,VALID,-0.0169808,VALID,20.2878,VALID,103,VALID,0.267103,
2003-08-10, 02:22:00,VALID,916.013,VALID,0,VALID,100,VALID,-0.0339617,VALID,20.2977,VALID,103,VALID,0.236064,
2003-08-10, 02:23:00,VALID,915.997,VALID,0,VALID,100,VALID,-0.0679233,VALID,20.3131,VALID,103,VALID,0.0491976,
2003-08-10, 02:24:00,VALID,915.971,VALID,0,VALID,100,VALID,-0.0339617,VALID,20.3198,VALID,103,VALID,0,
2003-08-10, 02:25:00,VALID,915.96,VALID,0,VALID,100,VALID,-0.0339617,VALID,20.3295,VALID,103,VALID,0.0827703,
2003-08-10, 02:26:00,VALID,915.94,VALID,0,VALID,100,VALID,-0.0169808,VALID,20.3292,VALID,103,VALID,0.0160473,
2003-08-10, 02:27:00,VALID,915.906,VALID,0,VALID,100,VALID,-0.0169808,VALID,20.3355,VALID,103,VALID,0,
2003-08-10, 02:28:00,VALID,915.889,VALID,0,VALID,100,VALID,-0.0169808,VALID,20.3551,VALID,103,VALID,0,
2003-08-10, 02:29:00,VALID,915.871,VALID,0,VALID,100,VALID,-0.0339617,VALID,20.3653,VALID,113,VALID,0.380716,
2003-08-10, 02:30:00,VALID,915.84,VALID,0,VALID,100,VALID,0,VALID,20.3355,VALID,85,VALID,0.407366,
2003-08-10, 02:31:00,VALID,915.798,VALID,0,VALID,100,VALID,-0.0169808,VALID,20.3352,VALID,65,VALID,0.428602,
2003-08-10, 02:32:00,VALID,915.771,VALID,0,VALID,100,VALID,-0.0339617,VALID,20.3201,VALID,91,VALID,0.361842,
2003-08-10, 02:33:00,VALID,915.754,VALID,0,VALID,100,VALID,-0.0169808,VALID,20.3069,VALID,87,VALID,0.336607,
2003-08-10, 02:34:00,VALID,915.727,VALID,0,VALID,100,VALID,-0.0169808,VALID,20.2773,VALID,90,VALID,0.310033,
2003-08-10, 02:35:00,VALID,915.707,VALID,0,VALID,100,VALID,-0.0679233,VALID,20.2681,VALID,90,VALID,0.094697,
2003-08-10, 02:36:00,VALID,915.677,VALID,0,VALID,100,VALID,-0.0169808,VALID,20.2482,VALID,90,VALID,0.142103,
2003-08-10, 02:37:00,VALID,915.678,VALID,0,VALID,100,VALID,0,VALID,20.2418,VALID,90,VALID,0.155633,
2003-08-10, 02:38:00,VALID,915.649,VALID,0,VALID,100,VALID,-0.0339617,VALID,20.2555,VALID,90,VALID,0.241343,
2003-08-10, 02:39:00,VALID,915.622,VALID,0,VALID,100,VALID,0,VALID,20.242,VALID,90,VALID,0.166266,
2003-08-10, 02:40:00,VALID,915.586,VALID,0,VALID,100,VALID,-0.0169808,VALID,20.2386,VALID,90,VALID,0.116741,
2003-08-10, 02:41:00,VALID,915.584,VALID,0,VALID,100,VALID,0,VALID,20.2423,VALID,90,VALID,0,
2003-08-10, 02:42:00,VALID,915.566,VALID,0,VALID,100,VALID,-0.0169808,VALID,20.2388,VALID,90,VALID,0.00633446,
2003-08-10, 02:43:00,VALID,915.539,VALID,0,VALID,100,VALID,0,VALID,20.2517,VALID,90,VALID,0.380701,
2003-08-10, 02:44:00,VALID,915.524,VALID,0,VALID,100,VALID,-0.0169808,VALID,20.2356,VALID,79,VALID,0.620793,
2003-08-10, 02:45:00,VALID,915.514,VALID,0,VALID,100,VALID,-0.0169808,VALID,20.1931,VALID,77,VALID,0.545982,
2003-08-10, 02:46:00,VALID,915.504,VALID,0,VALID,100,VALID,-0.0339617,VALID,20.178,VALID,72,VALID,0.281027,
2003-08-10, 02:47:00,VALID,915.498,VALID,0,VALID,100,VALID,-0.0169808,VALID,20.1489,VALID,72,VALID,0,
2003-08-10, 02:48:00,VALID,915.513,VALID,0,VALID,100,VALID,-0.0169808,VALID,20.1225,VALID,169,VALID,0.326647,
2003-08-10, 02:49:00,VALID,915.528,VALID,0,VALID,100,VALID,-0.0509425,VALID,20.0875,VALID,234,VALID,0.604768,
2003-08-10, 02:50:00,VALID,915.537,VALID,0,VALID,100,VALID,-0.0169808,VALID,20.1029,VALID,234,VALID,0.668403,
2003-08-10, 02:51:00,VALID,915.553,VALID,0,VALID,100,VALID,0,VALID,20.1258,VALID,234,VALID,0.502745,
2003-08-10, 02:52:00,VALID,915.558,VALID,0,VALID,100,VALID,-0.0169808,VALID,20.1462,VALID,200,VALID,0.178421,
2003-08-10, 02:53:00,VALID,915.581,VALID,0,VALID,100,VALID,-0.0169808,VALID,20.1126,VALID,187,VALID,0.244299,
2003-08-10, 02:54:00,VALID,915.591,VALID,0,VALID,100,VALID,-0.0339617,VALID,20.0873,VALID,138,VALID,0.250801,
2003-08-10, 02:55:00,VALID,915.594,VALID,0,VALID,100,VALID,-0.0169808,VALID,20.0577,VALID,142,VALID,0.506968,
2003-08-10, 02:56:00,VALID,915.58,VALID,0,VALID,100,VALID,-0.0339617,VALID,20.0356,VALID,146,VALID,0.434966,
2003-08-10, 02:57:00,VALID,915.565,VALID,0,VALID,100,VALID,-0.0169808,VALID,20.0194,VALID,136,VALID,0.313151,
2003-08-10, 02:58:00,VALID,915.544,VALID,0,VALID,100,VALID,-0.0339617,VALID,20.02,VALID,151,VALID,0.41942,
2003-08-10, 02:59:00,VALID,915.527,VALID,0,VALID,100,VALID,-0.0169808,VALID,20.0003,VALID,151,VALID,0.038872,
2003-08-10, 03:00:00,VALID,915.505,VALID,0,VALID,100,VALID,-0.0169808,VALID,19.9934,VALID,151,VALID,0.0482143,
2003-08-10, 03:01:00,VALID,915.486,VALID,0,VALID,100,VALID,0,VALID,19.9901,VALID,143,VALID,0.339627,
2003-08-10, 03:02:00,VALID,915.473,VALID,0,VALID,100,VALID,-0.0169808,VALID,19.9906,VALID,135,VALID,0.587993,
2003-08-10, 03:03:00,VALID,915.447,VALID,0,VALID,100,VALID,0,VALID,19.9971,VALID,129,VALID,0.549554,
2003-08-10, 03:04:00,VALID,915.428,VALID,0,VALID,100,VALID,-0.0169808,VALID,19.9777,VALID,128,VALID,0.303865,
2003-08-10, 03:05:00,VALID,915.403,VALID,0,VALID,100,VALID,-0.0169808,VALID,19.9581,VALID,122,VALID,0.442472,
2003-08-10, 03:06:00,VALID,915.382,VALID,0,VALID,100,VALID,0.0169808,VALID,19.9333,VALID,97,VALID,0.612753,
2003-08-10, 03:07:00,VALID,915.363,VALID,0,VALID,100,VALID,0,VALID,19.896,VALID,106,VALID,0.829153,
2003-08-10, 03:08:00,VALID,915.363,VALID,0,VALID,100,VALID,-0.0169808,VALID,19.9198,VALID,107,VALID,0.691301,
2003-08-10, 03:09:00,VALID,915.373,VALID,0,VALID,100,VALID,0,VALID,19.936,VALID,104,VALID,0.679487,
2003-08-10, 03:10:00,VALID,915.381,VALID,0,VALID,100,VALID,0.0339617,VALID,19.9377,VALID,95,VALID,0.864286,
2003-08-10, 03:11:00,VALID,915.396,VALID,0,VALID,100,VALID,0.0679233,VALID,19.9439,VALID,91,VALID,0.826976,
2003-08-10, 03:12:00,VALID,915.394,VALID,0,VALID,100,VALID,0,VALID,19.9312,VALID,61,VALID,0.565245,
2003-08-10, 03:13:00,VALID,915.398,VALID,0,VALID,100,VALID,0.0169808,VALID,19.9154,VALID,48,VALID,0.664274,
2003-08-10, 03:14:00,VALID,915.389,VALID,0,VALID,100,VALID,0,VALID,19.8895,VALID,40,VALID,0.623197,
2003-08-10, 03:15:00,VALID,915.379,VALID,0,VALID,100,VALID,0.0339617,VALID,19.8793,VALID,42,VALID,0.651116,
2003-08-10, 03:16:00,VALID,915.364,VALID,0,VALID,100,VALID,0.0509425,VALID,19.896,VALID,36,VALID,0.697991,
2003-08-10, 03:17:00,VALID,915.349,VALID,0,VALID,100,VALID,0.0339617,VALID,19.9054,VALID,56,VALID,0.466964,
2003-08-10, 03:18:00,VALID,915.344,VALID,0,VALID,100,VALID,0.0339617,VALID,19.8992,VALID,56,VALID,0.22234,
2003-08-10, 03:19:00,VALID,915.336,VALID,0,VALID,100,VALID,0.0339617,VALID,19.8729,VALID,56,VALID,0.00941506,
2003-08-10, 03:20:00,VALID,915.315,VALID,0,VALID,100,VALID,0.0169808,VALID,19.8639,VALID,56,VALID,0.185113,
2003-08-10, 03:21:00,VALID,915.296,VALID,0,VALID,100,VALID,0.0169808,VALID,19.8413,VALID,58,VALID,0.133657,
2003-08-10, 03:22:00,VALID,915.271,VALID,0,VALID,100,VALID,0.0339617,VALID,19.8314,VALID,111,VALID,0.472762,
2003-08-10, 03:23:00,VALID,915.247,VALID,0,VALID,100,VALID,0.0169808,VALID,19.8411,VALID,131,VALID,0.341216,
2003-08-10, 03:24:00,VALID,915.24,VALID,0,VALID,100,VALID,0.0169808,VALID,19.848,VALID,127,VALID,0.604968,
2003-08-10, 03:25:00,VALID,915.238,VALID,0,VALID,100,VALID,0,VALID,19.8416,VALID,111,VALID,0.170397,
2003-08-10, 03:26:00,VALID,915.23,VALID,0,VALID,100,VALID,0,VALID,19.8416,VALID,111,VALID,0.477829,
2003-08-10, 03:27:00,VALID,915.222,VALID,0,VALID,100,VALID,0.0169808,VALID,19.8349,VALID,115,VALID,0.525391,
2003-08-10, 03:28:00,VALID,915.22,VALID,0,VALID,100,VALID,0,VALID,19.8381,VALID,129,VALID,0.184375,
2003-08-10, 03:29:00,VALID,915.222,VALID,0,VALID,100,VALID,0.0339617,VALID,19.822,VALID,142,VALID,0.0304878,
2003-08-10, 03:30:00,VALID,915.222,VALID,0,VALID,100,VALID,0,VALID,19.812,VALID,204,VALID,0.153125,
2003-08-10, 03:31:00,VALID,915.235,VALID,0,VALID,100,VALID,0,VALID,19.8058,VALID,218,VALID,0.288194,
2003-08-10, 03:32:00,VALID,915.232,VALID,0,VALID,100,VALID,0.0169808,VALID,19.8093,VALID,225,VALID,0.0629112,
2003-08-10, 03:33:00,VALID,915.255,VALID,0,VALID,100,VALID,0.0339617,VALID,19.783,VALID,225,VALID,0,
2003-08-10, 03:34:00,VALID,915.258,VALID,0,VALID,100,VALID,0,VALID,19.7733,VALID,225,VALID,0.0078125,
2003-08-10, 03:35:00,VALID,915.278,VALID,0,VALID,100,VALID,0,VALID,19.7738,VALID,131,VALID,0.361032,
2003-08-10, 03:36:00,VALID,915.293,VALID,0,VALID,100,VALID,0.0169808,VALID,19.744,VALID,113,VALID,0.629856,
2003-08-10, 03:37:00,VALID,915.312,VALID,0,VALID,100,VALID,0,VALID,19.7122,VALID,135,VALID,0.595806,
2003-08-10, 03:38:00,VALID,915.319,VALID,0,VALID,100,VALID,0.0339617,VALID,19.6796,VALID,128,VALID,0.600296,
2003-08-10, 03:39:00,VALID,915.32,VALID,0,VALID,100,VALID,0,VALID,19.6704,VALID,131,VALID,0.730569,
2003-08-10, 03:40:00,VALID,915.323,VALID,0,VALID,100,VALID,0,VALID,19.6545,VALID,132,VALID,0.299107,
2003-08-10, 03:41:00,VALID,915.302,VALID,0,VALID,100,VALID,0,VALID,19.6645,VALID,114,VALID,0.0912224,